This is the latest recevied weather packets stored in our database for station/object WW4HG. If no packets are shown the sender has not sent any weather packets the latest 10 day(s).
| Time | Temp. | Humidity | Pressure | Rain* | Wind** | Luminosity | Snow |
|---|---|---|---|---|---|---|---|
| 1777756874 | 12.78° C | 85% | 1012.6 hPa | 0 mm | - | 22 W/m² | - |
| 1777756569 | 12.78° C | 85% | 1012.6 hPa | 0 mm | - | 88 W/m² | - |
| 1777756266 | 12.78° C | 85% | 1012.3 hPa | 0 mm | - | 82 W/m² | - |
| 1777755963 | 12.78° C | 85% | 1012.6 hPa | 0 mm | - | 21 W/m² | - |
| 1777755661 | 12.78° C | 85% | 1012.3 hPa | 0 mm | - | 40 W/m² | - |
| 1777755356 | 12.78° C | 85% | 1012.3 hPa | 0 mm | - | 46 W/m² | - |
| 1777755054 | 12.78° C | 85% | 1012.3 hPa | 0 mm | - | 49 W/m² | - |
| 1777754750 | 12.78° C | 86% | 1012.3 hPa | 0 mm | - | 53 W/m² | - |
| 1777754449 | 12.78° C | 85% | 1011.9 hPa | 0 mm | - | 59 W/m² | - |
| 1777754145 | 12.78° C | 85% | 1011.9 hPa | 0 mm | - | 72 W/m² | - |
| 1777753843 | 12.78° C | 86% | 1011.9 hPa | 0 mm | - | 80 W/m² | - |
| 1777753538 | 12.78° C | 85% | 1011.6 hPa | 0 mm | - | 92 W/m² | - |
| 1777753237 | 12.78° C | 85% | 1011.6 hPa | 0 mm | - | 68 W/m² | - |
| 1777752932 | 12.78° C | 85% | 1011.6 hPa | 0 mm | - | 38 W/m² | - |
| 1777752629 | 12.78° C | 85% | 1011.9 hPa | 1.78 mm | - | 41 W/m² | - |
| 1777752325 | 12.78° C | 85% | 1012.3 hPa | 1.78 mm | - | 44 W/m² | - |
| 1777752023 | 12.78° C | 85% | 1012.3 hPa | 0 mm | - | 46 W/m² | - |
| 1777751720 | 12.78° C | 85% | 1012.3 hPa | 0 mm | - | 39 W/m² | - |
| 1777751415 | 12.78° C | 85% | 1012.3 hPa | 1.78 mm | - | 58 W/m² | - |
| 1777751107 | 12.78° C | 85% | 1012.3 hPa | 1.78 mm | - | 55 W/m² | - |
| 1777750803 | 12.78° C | 85% | 1011.9 hPa | 0 mm | - | 64 W/m² | - |
| 1777750500 | 12.78° C | 86% | 1012.3 hPa | 0 mm | - | 69 W/m² | - |
| 1777750195 | 12.78° C | 86% | 1012.3 hPa | 1.78 mm | - | 55 W/m² | - |
| 1777749887 | 12.78° C | 86% | 1012.3 hPa | 1.78 mm | - | 67 W/m² | - |
| 1777749584 | 12.78° C | 86% | 1012.6 hPa | 0 mm | - | 53 W/m² | - |
* Rain latest hour (hover to see other rain measurements)
** Current wind speed in m/s (hover to see current wind gust speed)